| time (UTC) | temp F | wind direction | speed knots | gust knots | rain 1hr in | rain 24hr in | rain mn in | humidity % | barometer mb |
| 20260510120057 | 0 | 0.0 | 0.0 | 0.00 | 0.23 | 0.05 | 1011.2 | ||
| 20260510114553 | 0 | 0.0 | 0.0 | 0.00 | 0.23 | 0.05 | 1011.0 | ||
| 20260510113052 | 0 | 0.0 | 0.0 | 0.00 | 0.23 | 0.05 | 1010.9 | ||
| 20260510111547 | 0 | 0.0 | 0.0 | 0.00 | 0.23 | 0.05 | 1010.5 | ||
| 20260510110046 | 0 | 0.0 | 0.0 | 0.00 | 0.23 | 0.05 | 1010.2 | ||
| 20260510104544 | 0 | 0.0 | 0.0 | 0.00 | 0.23 | 0.05 | 1009.9 | ||
| 20260510103045 | 0 | 0.0 | 0.0 | 0.00 | 0.23 | 0.05 | 1009.6 | ||
| 20260510101543 | 0 | 0.0 | 0.0 | 0.00 | 0.23 | 0.05 | 1009.6 | ||
| 20260510100043 | 0 | 0.0 | 0.0 | 0.00 | 0.23 | 0.05 | 1009.4 | ||
| 20260510094549 | 0 | 0.0 | 0.0 | 0.00 | 0.23 | 0.05 | 1009.2 | ||
| 20260510093053 | 47 | 0.0 | 0.0 | 0.00 | 0.23 | 0.05 | 96 | 1009.0 | |
| 20260510091542 | 47 | 0.0 | 0.0 | 0.00 | 0.23 | 0.05 | 96 | 1008.9 | |
| 20260510090038 | 47 | 0.0 | 0.0 | 0.00 | 0.23 | 0.05 | 96 | 1008.6 | |
| 20260510084535 | 46 | 0.0 | 0.0 | 0.00 | 0.24 | 0.05 | 96 | 1008.7 | |
| 20260510083034 | 46 | 0.0 | 0.0 | 0.01 | 0.24 | 0.05 | 95 | 1008.7 | |
| 20260510081533 | 46 | 0.0 | 0.0 | 0.01 | 0.24 | 0.05 | 95 | 1008.5 | |
| 20260510080037 | 46 | 0.0 | 0.0 | 0.01 | 0.24 | 0.05 | 94 | 1008.5 | |
| 20260510074531 | 46 | 0.0 | 0.0 | 0.01 | 0.25 | 0.05 | 94 | 1008.4 | |
| 20260510073039 | 47 | 0.0 | 0.0 | 0.00 | 0.24 | 0.04 | 94 | 1008.2 | |
| 20260510071528 | 47 | 0.0 | 0.0 | 0.00 | 0.24 | 0.04 | 94 | 1008.2 | |
| 20260510070030 | 47 | 0.0 | 0.0 | 0.00 | 0.24 | 0.04 | 94 | 1008.4 | |
| 20260510064524 | 47 | 0.0 | 0.0 | 0.00 | 0.26 | 0.04 | 94 | 1008.3 | |
| 20260510063023 | 48 | 0.0 | 0.0 | 0.00 | 0.26 | 0.04 | 94 | 1008.4 | |
| 20260510061521 | 48 | 0.0 | 0.0 | 0.01 | 0.26 | 0.04 | 94 | 1009.1 | |
| 20260510060019 | 48 | 0.0 | 0.0 | 0.02 | 0.26 | 0.04 | 94 | 1009.0 | |
| 20260510054519 | 48 | 0.0 | 0.0 | 0.04 | 0.27 | 0.04 | 94 | 1009.0 | |
| 20260510053043 | 49 | 0.0 | 0.0 | 0.04 | 0.27 | 0.04 | 94 | 1009.8 | |
| 20260510051518 | 49 | 0.0 | 0.0 | 0.03 | 0.26 | 0.03 | 94 | 1009.9 | |
| 20260510050023 | 49 | 0.0 | 0.0 | 0.02 | 0.25 | 0.02 | 94 | 1010.2 | |
| 20260510044517 | 49 | 0.0 | 0.0 | 0.00 | 0.23 | 0.00 | 94 | 1010.4 | |
| 20260510043026 | 49 | 0.0 | 0.0 | 0.00 | 0.23 | 0.00 | 96 | 1010.2 | |
| 20260510041517 | 49 | 0.0 | 0.0 | 0.00 | 0.23 | 0.00 | 96 | 1010.2 | |
| 20260510040009 | 48 | 0.0 | 0.0 | 0.00 | 0.23 | 0.00 | 96 | 1009.2 | |
| 20260510034506 | 47 | 0.0 | 0.0 | 0.00 | 0.23 | 0.23 | 96 | 1008.6 | |
| 20260510033006 | 47 | 0.0 | 0.0 | 0.00 | 0.23 | 0.23 | 95 | 1008.6 | |
| 20260510031509 | 47 | 0.0 | 0.0 | 0.00 | 0.23 | 0.23 | 95 | 1008.6 | |
| 20260510030105 | 47 | 0.0 | 0.0 | 0.00 | 0.23 | 0.23 | 95 | 1008.3 | |
| 20260510024505 | 47 | 0.0 | 0.0 | 0.00 | 0.23 | 0.23 | 95 | 1008.2 | |
| 20260510023006 | 47 | 0.0 | 0.0 | 0.00 | 0.23 | 0.23 | 94 | 1008.2 | |
| 20260510021510 | 47 | 0.0 | 0.0 | 0.00 | 0.23 | 0.23 | 94 | 1008.1 | |
| 20260510020002 | 47 | 0.0 | 0.0 | 0.00 | 0.23 | 0.23 | 94 | 1008.1 | |
| 20260510014503 | 47 | 0.0 | 0.0 | 0.00 | 0.23 | 0.23 | 93 | 1007.9 | |
| 20260510013001 | 48 | 0.0 | 0.0 | 0.00 | 0.23 | 0.23 | 92 | 1007.8 | |
| 20260510011600 | 48 | 0.0 | 0.0 | 0.00 | 0.23 | 0.23 | 92 | 1007.9 | |
| 20260510010106 | 49 | 0.0 | 0.0 | 0.00 | 0.23 | 0.23 | 91 | 1007.8 | |
| 20260510004602 | 49 | 0.0 | 0.0 | 0.00 | 0.23 | 0.23 | 91 | 1007.5 | |
| 20260510003059 | 50 | 0.0 | 0.0 | 0.00 | 0.23 | 0.23 | 91 | 1007.1 | |
| 20260510001558 | 51 | 0.0 | 0.0 | 0.00 | 0.23 | 0.23 | 90 | 1007.2 | |
| 20260509234557 | 52 | 0.0 | 0.0 | 0.00 | 0.23 | 0.23 | 91 | 1007.1 | |
| 20260509233058 | 52 | 0.0 | 0.0 | 0.00 | 0.23 | 0.23 | 91 | 1006.9 | |
| 20260509231556 | 52 | 0.0 | 0.0 | 0.00 | 0.23 | 0.23 | 92 | 1006.6 | |
| 20260509230056 | 52 | 0.0 | 0.0 | 0.00 | 0.23 | 0.23 | 92 | 1006.6 | |
| 20260509224552 | 52 | 0.0 | 0.0 | 0.00 | 0.23 | 0.23 | 92 | 1006.9 | |
| 20260509223051 | 52 | 0.0 | 0.0 | 0.00 | 0.23 | 0.23 | 92 | 1006.8 | |
| 20260509221548 | 52 | 0.0 | 0.0 | 0.00 | 0.23 | 0.23 | 92 | 1006.7 | |
| 20260509220047 | 52 | 0.0 | 0.0 | 0.00 | 0.23 | 0.23 | 93 | 1006.8 | |
| 20260509214559 | 52 | 0.0 | 0.0 | 0.00 | 0.23 | 0.23 | 92 | 1006.9 | |
| 20260509213040 | 52 | 0.0 | 0.0 | 0.00 | 0.23 | 0.23 | 94 | 1006.9 | |
| 20260509211535 | 51 | 0.0 | 0.0 | 0.00 | 0.23 | 0.23 | 93 | 1007.1 | |
| 20260509210035 | 51 | 0.0 | 0.0 | 0.00 | 0.23 | 0.23 | 94 | 1007.3 | |
| 20260509204536 | 51 | 0.0 | 0.0 | 0.01 | 0.23 | 0.23 | 94 | 1007.3 | |
| 20260509203030 | 51 | 0.0 | 0.0 | 0.02 | 0.23 | 0.23 | 95 | 1007.5 | |
| 20260509201526 | 50 | 0.0 | 0.0 | 0.02 | 0.23 | 0.23 | 95 | 1007.6 | |
| 20260509200024 | 50 | 0.0 | 0.0 | 0.03 | 0.23 | 0.23 | 95 | 1007.7 | |
| 20260509194524 | 50 | 0.0 | 0.0 | 0.03 | 0.22 | 0.22 | 95 | 1007.8 | |
| 20260509193027 | 50 | 0.0 | 0.0 | 0.06 | 0.21 | 0.21 | 95 | 1008.0 | |
| 20260509191527 | 50 | 0.0 | 0.0 | 0.08 | 0.21 | 0.21 | 94 | 1008.0 | |
| 20260509190028 | 50 | 0.0 | 0.0 | 0.09 | 0.20 | 0.20 | 95 | 1008.1 | |
| 20260509184530 | 49 | 0.0 | 0.0 | 0.10 | 0.19 | 0.19 | 94 | 1008.2 | |
| 20260509183011 | 49 | 0.0 | 0.0 | 0.07 | 0.15 | 0.15 | 94 | 1008.3 | |
| 20260509181507 | 49 | 0.0 | 0.0 | 0.05 | 0.12 | 0.12 | 94 | 1008.2 | |
| 20260509180005 | 49 | 0.0 | 0.0 | 0.04 | 0.10 | 0.10 | 94 | 1008.2 | |
| 20260509174505 | 49 | 0.0 | 0.0 | 0.03 | 0.09 | 0.09 | 95 | 1008.2 | |
| 20260509173004 | 49 | 0.0 | 0.0 | 0.02 | 0.08 | 0.08 | 95 | 1008.1 | |
| 20260509171600 | 49 | 0.0 | 0.0 | 0.01 | 0.07 | 0.07 | 94 | 1008.1 | |
| 20260509170101 | 49 | 0.0 | 0.0 | 0.01 | 0.06 | 0.06 | 94 | 1008.1 | |
| 20260509164532 | 49 | 0.0 | 0.0 | 0.01 | 0.06 | 0.06 | 94 | 1008.1 | |
| 20260509163039 | 49 | 0.0 | 0.0 | 0.01 | 0.06 | 0.06 | 94 | 1008.2 | |
| 20260509161531 | 49 | 0.0 | 0.0 | 0.01 | 0.06 | 0.06 | 95 | 1008.4 | |
| 20260509160029 | 49 | 0.0 | 0.0 | 0.00 | 0.05 | 0.05 | 95 | 1008.5 | |
| 20260509154527 | 49 | 0.0 | 0.0 | 0.00 | 0.05 | 0.05 | 95 | 1008.6 | |
| 20260509153034 | 48 | 0.0 | 0.0 | 0.00 | 0.05 | 0.05 | 96 | 1008.7 | |
| 20260509151520 | 0 | 0.0 | 0.0 | 0.00 | 0.05 | 0.05 | 1009.1 | ||
| 20260509150017 | 0 | 0.0 | 0.0 | 0.00 | 0.05 | 0.05 | 1009.2 | ||
| 20260509144511 | 0 | 0.0 | 0.0 | 0.00 | 0.05 | 0.05 | 1009.4 | ||
| 20260509143008 | 0 | 0.0 | 0.0 | 0.00 | 0.05 | 0.05 | 1009.5 | ||
| 20260509141503 | 0 | 0.0 | 0.0 | 0.00 | 0.05 | 0.05 | 1009.4 | ||
| 20260509134554 | 0 | 0.0 | 0.0 | 0.00 | 0.05 | 0.05 | 1009.3 | ||
| 20260509133050 | 0 | 0.0 | 0.0 | 0.00 | 0.05 | 0.05 | 1009.3 | ||
| 20260509131545 | 0 | 0.0 | 0.0 | 0.00 | 0.05 | 0.05 | 1009.6 | ||
| 20260509130042 | 0 | 0.0 | 0.0 | 0.00 | 0.05 | 0.05 | 1009.6 | ||
| 20260509124544 | 0 | 0.0 | 0.0 | 0.00 | 0.05 | 0.05 | 1009.6 | ||
| 20260509123035 | 0 | 0.0 | 0.0 | 0.00 | 0.05 | 0.05 | 1009.8 | ||
| 20260509121534 | 0 | 0.0 | 0.0 | 0.00 | 0.05 | 0.05 | 1009.7 |